Terug naar catalogus

HULIANWANG DIGUI-173

ActiefWetenschapLEO
NORAD 69576·PAYLOAD·🇨🇳 China

Gelanceerd Jun 17, 2026 vanaf Wenchang Space Launch Site

Loading…

Volgende Passages (komende 24 uur)

TLE

VersSource: Space-Track

Epoch: Sep 14, 2026, 10:39 UTC

1 69576U 26137E   26257.44409696 -.00000093  00000-0  66368-4 0  9992
2 69576  50.0022 275.7457 0000191 330.7756  29.3106 13.29326081 12204

Volg HULIANWANG DIGUI-173 in realtime met AllMySat

Download on the App Store